﻿"﻿最低氣溫 (攝氏度) - �s�C�篸"
"Minimum Temperature (°C) - New Tsing Yi Station"
年/Year,月/Month,日/Day,數值/Value,"數據完整性/data Completeness"
2024,1,1,18.9,C
2024,1,2,16.5,C
2024,1,3,15.3,C
2024,1,4,14.2,C
2024,1,5,14.7,C
2024,1,6,15.4,C
2024,1,7,17.3,C
2024,1,8,17.5,C
2024,1,9,17.2,C
2024,1,10,17.6,C
2024,1,11,17.1,C
2024,1,12,16.1,C
2024,1,13,16.6,C
2024,1,14,17.1,C
2024,1,15,16.2,C
2024,1,16,17.1,C
2024,1,17,17.1,C
2024,1,18,18.0,C
2024,1,19,17.0,#
2024,1,20,17.8,C
2024,1,21,15.9,C
2024,1,22,9.2,C
2024,1,23,5.7,C
2024,1,24,6.2,C
2024,1,25,9.1,C
2024,1,26,11.7,#
2024,1,27,12.4,C
2024,1,28,11.5,C
2024,1,29,14.0,C
2024,1,30,16.8,C
2024,1,31,18.2,C
2024,2,1,19.5,C
2024,2,2,19.4,C
2024,2,3,18.3,C
2024,2,4,20.0,C
2024,2,5,19.5,C
2024,2,6,18.2,#
2024,2,7,13.7,C
2024,2,8,10.9,C
2024,2,9,10.0,C
2024,2,10,10.5,C
2024,2,11,10.4,C
2024,2,12,14.0,C
2024,2,13,14.9,C
2024,2,14,16.3,C
2024,2,15,18.4,C
2024,2,16,17.6,C
2024,2,17,18.1,C
2024,2,18,20.2,C
2024,2,19,20.2,C
2024,2,20,22.4,C
2024,2,21,22.0,C
2024,2,22,21.3,C
2024,2,23,18.0,#
2024,2,24,16.3,C
2024,2,25,14.9,C
2024,2,26,15.9,C
2024,2,27,15.6,C
2024,2,28,17.4,C
2024,2,29,14.6,C
2024,3,1,9.8,C
2024,3,2,9.1,C
2024,3,3,13.5,C
2024,3,4,17.9,C
2024,3,5,22.0,C
2024,3,6,19.6,C
2024,3,7,15.8,C
2024,3,8,14.8,C
2024,3,9,14.4,C
2024,3,10,14.7,C
2024,3,11,15.2,C
2024,3,12,13.9,#
2024,3,13,15.8,C
2024,3,14,18.9,C
2024,3,15,19.7,C
2024,3,16,19.6,#
2024,3,17,20.8,C
2024,3,18,19.8,#
2024,3,19,19.4,C
2024,3,20,18.0,C
2024,3,21,17.8,C
2024,3,22,20.3,C
2024,3,23,22.3,C
2024,3,24,22.9,C
2024,3,25,22.3,C
2024,3,26,22.1,C
2024,3,27,20.6,C
2024,3,28,22.3,C
2024,3,29,22.2,C
2024,3,30,23.7,C
2024,3,31,25.0,C
"*** 沒有數據/unavailable"
"# 數據不完整/data incomplete"
"C 數據完整/data Complete"
